timestamp,surface_pressure_avg,surface_temp_avg,battery_voltage,lat,long
2024-03-31 00:09:00+00:00,286.8664,3.6,11.86,47.84626,-54.09684
2024-03-31 00:19:00+00:00,284.8664,3.55,11.86,47.84626,-54.09684
2024-03-31 00:29:00+00:00,296.4864,3.6,11.86,47.84626,-54.09684
2024-03-31 00:39:00+00:00,300.1964,3.6,11.86,47.84626,-54.09684
2024-03-31 00:49:00+00:00,301.858,3.68,11.86,47.84626,-54.09684
2024-03-31 00:59:00+00:00,306.9347,3.6,11.86,47.84626,-54.09684
2024-03-31 01:09:00+00:00,319.1381,3.59,11.86,47.84626,-54.09684
2024-03-31 01:19:00+00:00,317.9896,3.6,11.86,47.84626,-54.09684
2024-03-31 01:29:00+00:00,320.2596,3.63,11.86,47.84626,-54.09684
2024-03-31 01:39:00+00:00,328.8529,3.65,11.86,47.84626,-54.09684
2024-03-31 01:49:00+00:00,338.1013,3.64,11.86,47.84626,-54.09684
2024-03-31 01:59:00+00:00,335.8963,3.6,11.86,47.84626,-54.09684
2024-03-31 02:09:00+00:00,329.0596,3.41,11.86,47.84626,-54.09684
2024-03-31 02:19:00+00:00,337.4097,3.6,11.86,47.84626,-54.09684
2024-03-31 02:29:00+00:00,344.6613,3.62,11.86,47.84626,-54.09684
2024-03-31 02:39:00+00:00,345.0896,3.48,11.86,47.84626,-54.09684
2024-03-31 02:49:00+00:00,345.0996,3.49,11.86,47.84626,-54.09684
2024-03-31 02:59:00+00:00,350.5646,3.6,11.86,47.84626,-54.09684
2024-03-31 03:09:00+00:00,356.968,3.5,11.86,47.84626,-54.09684
2024-03-31 03:19:00+00:00,349.6746,3.5,11.86,47.84626,-54.09684
2024-03-31 03:29:00+00:00,351.7496,3.48,11.86,47.84626,-54.09684
2024-03-31 03:39:00+00:00,356.3629,3.5,11.86,47.84626,-54.09684
2024-03-31 03:49:00+00:00,351.9029,3.5,11.86,47.84626,-54.09684
2024-03-31 03:59:00+00:00,341.4646,3.5,11.86,47.84626,-54.09684
2024-03-31 04:09:00+00:00,339.05300000000005,3.4,11.86,47.84626,-54.09684
2024-03-31 04:19:00+00:00,346.00800000000015,3.4,11.77,47.84626,-54.09684
2024-03-31 04:29:00+00:00,339.3663,3.43,11.77,47.84626,-54.09684
2024-03-31 04:39:00+00:00,328.2629,3.59,11.77,47.84626,-54.09684
2024-03-31 04:49:00+00:00,330.3997,3.53,11.77,47.84626,-54.09684
2024-03-31 04:59:00+00:00,339.4413,3.5,11.77,47.84626,-54.09684
2024-03-31 05:09:00+00:00,328.9813,3.36,11.77,47.84626,-54.09684
2024-03-31 05:19:00+00:00,314.908,3.38,11.86,47.84626,-54.09684
2024-03-31 05:29:00+00:00,317.1997,3.3,11.86,47.84626,-54.09684
2024-03-31 05:39:00+00:00,319.7931,3.4,11.86,47.84626,-54.09684
2024-03-31 05:49:00+00:00,307.6163,3.4,11.86,47.84626,-54.09684
2024-03-31 05:59:00+00:00,298.3013,3.4,11.86,47.84626,-54.09684
2024-03-31 06:09:00+00:00,299.5264,3.48,11.86,47.84626,-54.09684
2024-03-31 06:19:00+00:00,292.558,3.5,11.86,47.84626,-54.09684
2024-03-31 06:29:00+00:00,280.8248,3.56,11.86,47.84626,-54.09684
2024-03-31 06:39:00+00:00,276.7397,3.5,11.86,47.84626,-54.09684
2024-03-31 06:49:00+00:00,277.3697,3.5,11.86,47.84626,-54.09684
2024-03-31 06:59:00+00:00,268.4714,3.56,11.86,47.84626,-54.09684
2024-03-31 07:09:00+00:00,257.2198,3.6,11.86,47.84626,-54.09684
2024-03-31 07:19:00+00:00,251.3531,3.6,11.86,47.84626,-54.09684
2024-03-31 07:29:00+00:00,246.7581,3.6,11.86,47.84626,-54.09684
2024-03-31 07:39:00+00:00,236.7148,3.6,11.86,47.84626,-54.09684
2024-03-31 07:49:00+00:00,230.5581,3.6,11.86,47.84626,-54.09684
2024-03-31 07:59:00+00:00,230.7365,3.6,11.86,47.84626,-54.09684
2024-03-31 08:09:00+00:00,223.2115,3.6,11.86,47.84626,-54.09684
2024-03-31 08:19:00+00:00,217.9898,3.6,11.86,47.84626,-54.09684
2024-03-31 08:29:00+00:00,220.0115,3.6,11.86,47.84626,-54.09684
2024-03-31 08:39:00+00:00,214.9498,3.6,11.86,47.84626,-54.09684
2024-03-31 08:49:00+00:00,211.5298,3.6,11.86,47.84626,-54.09684
2024-03-31 08:59:00+00:00,215.7931,3.6,11.86,47.84626,-54.09684
2024-03-31 09:09:00+00:00,215.8231,3.6,11.86,47.84626,-54.09684
2024-03-31 09:19:00+00:00,211.0798,3.55,11.86,47.84626,-54.09684
2024-03-31 09:29:00+00:00,214.7431,3.6,11.86,47.84626,-54.09684
2024-03-31 09:39:00+00:00,220.4448,3.69,11.86,47.84626,-54.09684
2024-03-31 09:49:00+00:00,220.7431,3.5,11.86,47.84626,-54.09684
2024-03-31 09:59:00+00:00,223.6281,3.5,11.86,47.84626,-54.09684
2024-03-31 10:09:00+00:00,229.1098,3.6,11.86,47.84626,-54.09684
2024-03-31 10:19:00+00:00,230.8798,3.6,11.86,47.84626,-54.09684
2024-03-31 10:29:00+00:00,233.9031,3.5,11.86,47.84626,-54.09684
2024-03-31 10:39:00+00:00,238.6664,3.57,11.86,47.84626,-54.09684
2024-03-31 10:49:00+00:00,239.2114,3.58,11.86,47.84626,-54.09684
2024-03-31 10:59:00+00:00,237.9231,3.6,11.86,47.84626,-54.09684
2024-03-31 11:09:00+00:00,240.9281,3.59,11.86,47.84626,-54.09684
2024-03-31 11:19:00+00:00,246.6181,3.5,11.86,47.84626,-54.09684
2024-03-31 11:29:00+00:00,248.8914,3.5,11.86,47.84626,-54.09684
2024-03-31 11:39:00+00:00,248.6897,3.44,11.86,47.84626,-54.09684
2024-03-31 11:49:00+00:00,252.583,3.5,11.86,47.84626,-54.09684
2024-03-31 11:59:00+00:00,258.743,3.58,11.86,47.84626,-54.09684
2024-03-31 12:09:00+00:00,262.9281,3.4,11.86,47.84626,-54.09684
2024-03-31 12:19:00+00:00,264.2231,3.39,11.93,47.84626,-54.09684
2024-03-31 12:29:00+00:00,267.5414,3.43,11.93,47.84626,-54.09684
2024-03-31 12:39:00+00:00,269.9497,3.4,11.93,47.84626,-54.09684
2024-03-31 12:49:00+00:00,274.223,3.4,11.93,47.84626,-54.09684
2024-03-31 12:59:00+00:00,276.8931,3.4,11.93,47.84626,-54.09684
2024-03-31 13:09:00+00:00,285.5897,3.43,11.93,47.84626,-54.09684
2024-03-31 13:19:00+00:00,294.7513,3.4,12.01,47.84626,-54.09684
2024-03-31 13:29:00+00:00,299.303,3.4,12.01,47.84626,-54.09684
2024-03-31 13:39:00+00:00,300.553,3.4,12.01,47.84626,-54.09684
2024-03-31 13:49:00+00:00,307.2513,3.4,12.01,47.84626,-54.09684
2024-03-31 13:59:00+00:00,313.998,3.4,12.01,47.84626,-54.09684
2024-03-31 14:09:00+00:00,314.108,3.4,12.01,47.84626,-54.09684
2024-03-31 14:19:00+00:00,313.8513,3.4,12.25,47.84626,-54.09684
2024-03-31 14:29:00+00:00,317.5013,3.45,12.25,47.84626,-54.09684
2024-03-31 14:39:00+00:00,319.3263,3.4,12.25,47.84626,-54.09684
2024-03-31 14:49:00+00:00,317.6763,3.4,12.25,47.84626,-54.09684
2024-03-31 14:59:00+00:00,316.4763,3.46,12.25,47.84626,-54.09684
2024-03-31 15:09:00+00:00,318.8646,3.5,12.25,47.84626,-54.09684
2024-03-31 15:19:00+00:00,322.3863,3.4,12.33,47.84626,-54.09684
2024-03-31 15:29:00+00:00,323.2164,3.45,12.33,47.84626,-54.09684
2024-03-31 15:39:00+00:00,318.9213,3.5,12.33,47.84626,-54.09684
2024-03-31 15:49:00+00:00,319.768,3.5,12.33,47.84626,-54.09684
2024-03-31 15:59:00+00:00,322.068,3.5,12.33,47.84626,-54.09684
2024-03-31 16:09:00+00:00,320.5513,3.42,12.33,47.84626,-54.09684
2024-03-31 16:19:00+00:00,318.1663,3.44,12.25,47.84626,-54.09684
2024-03-31 16:29:00+00:00,318.6547,3.49,12.25,47.84626,-54.09684
2024-03-31 16:39:00+00:00,319.6746,3.5,12.25,47.84626,-54.09684
2024-03-31 16:49:00+00:00,314.3963,3.5,12.25,47.84626,-54.09684
2024-03-31 16:59:00+00:00,309.4412,3.5,12.25,47.84626,-54.09684
2024-03-31 17:09:00+00:00,307.808,3.5,12.25,47.84626,-54.09684
2024-03-31 17:19:00+00:00,307.423,3.5,12.17,47.84626,-54.09684
2024-03-31 17:29:00+00:00,306.318,3.56,12.17,47.84626,-54.09684
2024-03-31 17:39:00+00:00,300.5413,3.69,12.17,47.84626,-54.09684
2024-03-31 17:49:00+00:00,293.1863,3.8,12.17,47.84626,-54.09684
2024-03-31 17:59:00+00:00,290.388,3.85,12.17,47.84626,-54.09684
2024-03-31 18:09:00+00:00,286.5147,3.9,12.17,47.84626,-54.09684
2024-03-31 18:19:00+00:00,280.6964,3.9,12.17,47.84626,-54.09684
2024-03-31 18:29:00+00:00,274.2413,3.97,12.17,47.84626,-54.09684
2024-03-31 18:39:00+00:00,272.1781,4.0,12.17,47.84626,-54.09684
2024-03-31 18:49:00+00:00,266.748,4.0,12.17,47.84626,-54.09684
2024-03-31 18:59:00+00:00,259.3431,4.0,12.17,47.84626,-54.09684
2024-03-31 19:09:00+00:00,256.5114,4.0,12.17,47.84626,-54.09684
2024-03-31 19:19:00+00:00,256.4798,4.09,12.09,47.84626,-54.09684
2024-03-31 19:29:00+00:00,249.1481,4.07,12.09,47.84626,-54.09684
2024-03-31 19:39:00+00:00,241.0331,4.1,12.09,47.84626,-54.09684
2024-03-31 19:49:00+00:00,238.4347,4.1,12.09,47.84626,-54.09684
2024-03-31 19:59:00+00:00,233.9064,4.1,12.09,47.84626,-54.09684
2024-03-31 20:09:00+00:00,224.7598,4.0,12.09,47.84626,-54.09684
2024-03-31 20:19:00+00:00,218.8214,4.07,12.01,47.84626,-54.09684
2024-03-31 20:29:00+00:00,219.1814,4.1,12.01,47.84626,-54.09684
2024-03-31 20:39:00+00:00,216.3598,4.07,12.01,47.84626,-54.09684
2024-03-31 20:49:00+00:00,213.6515,4.0,12.01,47.84626,-54.09684
2024-03-31 20:59:00+00:00,215.7464,4.0,12.01,47.84626,-54.09684
2024-03-31 21:09:00+00:00,213.8531,4.0,12.01,47.84626,-54.09684
2024-03-31 21:19:00+00:00,213.2981,4.0,11.93,47.84626,-54.09684
2024-03-31 21:29:00+00:00,215.4798,4.0,11.93,47.84626,-54.09684
2024-03-31 21:39:00+00:00,216.0031,3.97,11.93,47.84626,-54.09684
2024-03-31 21:49:00+00:00,218.0531,4.0,11.93,47.84626,-54.09684
2024-03-31 21:59:00+00:00,222.8165,3.9,11.93,47.84626,-54.09684
2024-03-31 22:09:00+00:00,225.3648,3.7,11.93,47.84626,-54.09684
2024-03-31 22:19:00+00:00,228.3848,3.6,11.93,47.84626,-54.09684
2024-03-31 22:29:00+00:00,235.6714,3.6,11.93,47.84626,-54.09684
2024-03-31 22:39:00+00:00,241.8514,3.5,11.93,47.84626,-54.09684
2024-03-31 22:49:00+00:00,243.2514,3.49,11.93,47.84626,-54.09684
2024-03-31 22:59:00+00:00,245.7214,3.5,11.93,47.84626,-54.09684
2024-03-31 23:09:00+00:00,252.5481,3.5,11.93,47.84626,-54.09684
2024-03-31 23:19:00+00:00,254.5314,3.5,11.86,47.84626,-54.09684
2024-03-31 23:29:00+00:00,252.6814,3.5,11.86,47.84626,-54.09684
2024-03-31 23:39:00+00:00,255.3014,3.5,11.86,47.84626,-54.09684
2024-03-31 23:49:00+00:00,263.4981,3.5,11.86,47.84626,-54.09684
2024-03-31 23:59:00+00:00,266.938,3.5,11.86,47.84626,-54.09684
